Weather History for Rome, NY

Change the Weather History Date:

Tuesday, February 26, 2013

  Actual Average Record
Temperature  
Mean Temperature 28 °F -  
Max Temperature 39 °F 29 °F 50 °F (2009)
Min Temperature 16 °F 10 °F -17 °F (1990)
Degree Days  
Heating Degree Days 38    
Moisture  
Dew Point 23 °F    
Average Humidity 74    
Maximum Humidity 96    
Minimum Humidity 57    
Precipitation  
Precipitation 0.00 in - - ()
Sea Level Pressure  
Sea Level Pressure 30.19 in    
Wind  
Wind Speed 6 mph (ESE)    
Max Wind Speed 26 mph    
Max Gust Speed 38 mph    
Visibility 10 miles    
Events Rain    
Averages and records for this station are not official NWS values.
T = Trace of Precipitation, MM = Missing Value Source: NWS Daily Summary

Daily Weather History Graph

Daily Weather History Graph

Search for Another Location

Airport:

Trip Planner

Search our weather history database for the weather conditions in past years. The results will help you decide how hot, cold, wet, or windy it might be!

Date:

Astronomy

Feb. 26, 2013 Rise Set
Actual Time 6:42 AM EST 5:47 PM EST
Civil Twilight 6:13 AM EST 6:15 PM EST
Nautical Twilight 5:40 AM EST 6:48 PM EST
Astronomical Twilight 5:07 AM EST 7:21 PM EST
Moon 7:05 PM EST (2/26) 6:41 AM EST (2/26)
Length of Visible Light 12h 02m
Length of Day
11h 04m
Full, 99% of the Moon is Illuminated
Feb 26
Full
Mar 4
Last Quarter
Mar 11
New
Mar 19
First Quarter
Mar 27
Full

Hourly Weather History & Observations

Time (EST) Temp. Windchill Dew Point Humidity Pressure Visibility Wind Dir Wind Speed Gust Speed Precip Events Conditions
12:53 AM 19.9 °F - 18.0 °F 92% 30.27 in 9.0 mi Calm Calm - N/A   Clear
1:53 AM 19.0 °F - 17.1 °F 92% 30.29 in 10.0 mi Calm Calm - N/A   Clear
2:53 AM 18.0 °F - 15.1 °F 88% 30.29 in 10.0 mi Calm Calm - N/A   Clear
3:53 AM 19.9 °F - 17.1 °F 89% 30.28 in 10.0 mi Calm Calm - N/A   Clear
4:53 AM 17.1 °F 11.7 °F 14.0 °F 88% 30.30 in 10.0 mi ESE 3.5 mph - N/A   Clear
5:53 AM 19.0 °F 12.3 °F 16.0 °F 88% 30.30 in 10.0 mi ESE 4.6 mph - N/A   Clear
6:53 AM 16.0 °F - 15.1 °F 96% 30.30 in 10.0 mi Calm Calm - N/A   Clear
7:53 AM 19.0 °F - 17.1 °F 92% 30.28 in 10.0 mi Calm Calm - N/A   Clear
8:53 AM 26.1 °F 16.8 °F 21.9 °F 84% 30.28 in 10.0 mi East 9.2 mph - N/A   Clear
9:53 AM 30.9 °F 24.3 °F 25.0 °F 79% 30.27 in 10.0 mi ESE 6.9 mph - N/A   Clear
10:53 AM 36.0 °F 28.0 °F 27.0 °F 70% 30.27 in 10.0 mi ESE 11.5 mph - 0.00 in   Clear
11:53 AM 37.9 °F 30.9 °F 27.0 °F 65% 30.25 in 10.0 mi ESE 10.4 mph - N/A   Clear
12:53 PM 39.9 °F 33.9 °F 27.0 °F 60% 30.21 in 10.0 mi East 9.2 mph - 0.00 in Rain Light Rain
1:53 PM 39.9 °F 30.8 °F 26.1 °F 58% 30.16 in 10.0 mi ESE 18.4 mph - 0.00 in   Clear
2:53 PM 39.9 °F 31.8 °F 26.1 °F 58% 30.14 in 10.0 mi ESE 15.0 mph - N/A   Clear
3:53 PM 39.9 °F 31.4 °F 26.1 °F 58% 30.13 in 10.0 mi East 16.1 mph 21.9 mph N/A   Clear
4:53 PM 39.0 °F 31.0 °F 26.1 °F 60% 30.10 in 10.0 mi ESE 13.8 mph - N/A   Clear
5:53 PM 39.0 °F 31.0 °F 25.0 °F 57% 30.09 in 10.0 mi ESE 13.8 mph 25.3 mph N/A   Clear
7:53 PM 37.9 °F 29.6 °F 26.1 °F 62% 30.10 in 10.0 mi ESE 13.8 mph 23.0 mph N/A   Clear
8:53 PM 37.0 °F 26.7 °F 26.1 °F 65% 30.06 in 10.0 mi ESE 19.6 mph 28.8 mph N/A   Clear
9:53 PM 36.0 °F 24.7 °F 25.0 °F 64% 30.00 in 10.0 mi ESE 21.9 mph 28.8 mph N/A   Clear
10:53 PM 36.0 °F 23.7 °F 26.1 °F 67% 29.96 in 10.0 mi ESE 26.5 mph 38.0 mph N/A   Overcast
11:53 PM 35.1 °F 25.5 °F 28.0 °F 76% 29.97 in 10.0 mi ESE 15.0 mph 27.6 mph 0.00 in Rain Light Rain